Tracking 19831 objects as of 23-Aug-2019
HD Live streaming from Space Station
objects crossing your sky now

COSMOS 2251 DEB

Track COSMOS 2251 DEB now!
10-day predictions


NORAD ID: 36461
Int'l Code: 1993-036BBL
Perigee: 447.9 km
Apogee: 504.0 km
Inclination: 73.9 °
Period: 94.0 minutes
Semi major axis: 6846 km
RCS: 0.0027 m2 (small)
Launch date: June 16, 1993
Source: Commonwealth of Independent States (former USSR) (CIS)
Launch site: PLESETSK MISSILE AND SPACE COMPLEX (PKMTR)

Note: This is SATELLITE DEBRIS
aabbcc
Your satellite tracking list
Your tracking list is empty




NASA's NSSDC Master Catalog

Two Line Element Set (TLE):
1 36461U 93036BBL 19234.46817905  .00004712  00000-0  14871-3 0  9998
2 36461  73.9330 171.3211 0040988 222.1022 137.7031 15.32350906532391
Source of the keplerian elements: AFSPC